TimeCDT,TemperatureF,Dew PointF,Humidity,Sea Level PressureIn,VisibilityMPH,Wind Direction,Wind SpeedMPH,Gust SpeedMPH,PrecipitationIn,Events,Conditions,WindDirDegrees,DateUTC
12:15 AM,64.4,60.8,88,29.99,10.0,ESE,9.2,-,N/A,,Overcast,110,2013-04-27 05:15:00
12:35 AM,64.4,60.8,88,30.00,10.0,SE,6.9,-,N/A,,Overcast,130,2013-04-27 05:35:00
12:55 AM,64.4,60.8,88,30.01,10.0,ESE,6.9,-,N/A,,Overcast,120,2013-04-27 05:55:00
1:15 AM,64.4,60.8,88,30.02,10.0,SE,5.8,-,N/A,,Overcast,130,2013-04-27 06:15:00
1:35 AM,64.4,60.8,88,30.02,10.0,ESE,4.6,-,N/A,,Overcast,120,2013-04-27 06:35:00
1:55 AM,64.4,60.8,88,30.02,10.0,Calm,Calm,-,N/A,,Overcast,0,2013-04-27 06:55:00
2:15 AM,64.4,60.8,88,30.02,10.0,ENE,4.6,-,N/A,,Overcast,70,2013-04-27 07:15:00
2:35 AM,62.6,60.8,94,30.01,10.0,East,5.8,-,N/A,,Overcast,90,2013-04-27 07:35:00
2:55 AM,64.4,60.8,88,30.00,10.0,ESE,6.9,-,N/A,,Overcast,110,2013-04-27 07:55:00
3:15 AM,64.4,60.8,88,29.99,10.0,ESE,4.6,-,N/A,,Overcast,120,2013-04-27 08:15:00
3:35 AM,64.4,60.8,88,29.98,10.0,SE,6.9,-,N/A,,Overcast,130,2013-04-27 08:35:00
3:55 AM,64.4,60.8,88,29.97,10.0,SE,8.1,-,N/A,,Overcast,140,2013-04-27 08:55:00
4:15 AM,64.4,62.6,94,29.97,10.0,SE,4.6,-,N/A,,Overcast,130,2013-04-27 09:15:00
4:35 AM,64.4,62.6,94,29.97,10.0,SE,4.6,-,N/A,,Overcast,130,2013-04-27 09:35:00
4:55 AM,66.2,62.6,88,29.97,10.0,South,6.9,-,N/A,,Overcast,180,2013-04-27 09:55:00
5:15 AM,66.2,62.6,88,29.97,10.0,South,8.1,-,N/A,,Overcast,170,2013-04-27 10:15:00
6:35 AM,68.0,64.4,88,29.98,10.0,SW,9.2,-,N/A,,Mostly Cloudy,230,2013-04-27 11:35:00
6:55 AM,66.2,60.8,83,30.00,10.0,West,12.7,18.4,N/A,,Overcast,260,2013-04-27 11:55:00
7:15 AM,64.4,60.8,88,30.01,10.0,West,12.7,-,N/A,,Overcast,260,2013-04-27 12:15:00
7:35 AM,64.4,60.8,88,30.03,10.0,NNW,13.8,18.4,N/A,,Overcast,330,2013-04-27 12:35:00
8:15 AM,59.0,57.2,94,30.05,4.0,NNW,11.5,19.6,N/A,,Overcast,340,2013-04-27 13:15:00
8:35 AM,59.0,55.4,88,30.06,5.0,NNW,9.2,-,N/A,,Overcast,340,2013-04-27 13:35:00
8:55 AM,59.0,55.4,88,30.07,10.0,NNW,11.5,-,N/A,,Overcast,340,2013-04-27 13:55:00
9:15 AM,59.0,55.4,88,30.07,10.0,NNW,11.5,19.6,N/A,,Overcast,340,2013-04-27 14:15:00
9:35 AM,60.8,55.4,82,30.08,10.0,NNW,10.4,-,N/A,,Overcast,330,2013-04-27 14:35:00
9:55 AM,60.8,55.4,82,30.09,10.0,NW,11.5,-,N/A,,Overcast,320,2013-04-27 14:55:00
10:15 AM,60.8,55.4,82,30.09,10.0,NW,16.1,-,N/A,,Overcast,320,2013-04-27 15:15:00
10:35 AM,59.0,53.6,82,30.09,10.0,NNW,12.7,18.4,N/A,,Overcast,340,2013-04-27 15:35:00
10:55 AM,62.6,55.4,77,30.09,10.0,NNW,13.8,-,N/A,,Mostly Cloudy,340,2013-04-27 15:55:00
11:15 AM,62.6,53.6,72,30.10,10.0,NNW,11.5,16.1,N/A,,Mostly Cloudy,330,2013-04-27 16:15:00
11:35 AM,62.6,53.6,72,30.10,10.0,NNW,13.8,-,N/A,,Overcast,330,2013-04-27 16:35:00
11:55 AM,64.4,53.6,68,30.10,10.0,NW,13.8,-,N/A,,Overcast,320,2013-04-27 16:55:00
12:15 PM,64.4,53.6,68,30.11,10.0,NNW,12.7,18.4,N/A,,Overcast,330,2013-04-27 17:15:00
12:35 PM,64.4,53.6,68,30.11,10.0,NW,11.5,-,N/A,,Overcast,320,2013-04-27 17:35:00
12:55 PM,66.2,53.6,64,30.10,10.0,NW,11.5,17.3,N/A,,Overcast,320,2013-04-27 17:55:00
1:15 PM,68.0,53.6,60,30.09,10.0,NNW,15.0,18.4,N/A,,Overcast,330,2013-04-27 18:15:00
1:35 PM,68.0,53.6,60,30.09,10.0,NNW,9.2,-,N/A,,Overcast,330,2013-04-27 18:35:00
1:55 PM,68.0,53.6,60,30.10,10.0,NNW,10.4,-,N/A,,Mostly Cloudy,330,2013-04-27 18:55:00
2:15 PM,68.0,53.6,60,30.10,10.0,NW,6.9,-,N/A,,Mostly Cloudy,320,2013-04-27 19:15:00
2:35 PM,69.8,53.6,56,30.09,10.0,NNW,6.9,-,N/A,,Mostly Cloudy,330,2013-04-27 19:35:00
2:55 PM,69.8,53.6,56,30.08,10.0,NNE,8.1,16.1,N/A,,Scattered Clouds,20,2013-04-27 19:55:00
3:15 PM,69.8,53.6,56,30.07,10.0,NNW,8.1,-,N/A,,Scattered Clouds,340,2013-04-27 20:15:00
3:35 PM,69.8,53.6,56,30.07,10.0,North,8.1,-,N/A,,Scattered Clouds,350,2013-04-27 20:35:00
3:55 PM,69.8,53.6,56,30.07,10.0,NNW,8.1,-,N/A,,Scattered Clouds,340,2013-04-27 20:55:00
4:15 PM,69.8,53.6,56,30.06,10.0,NNW,6.9,-,N/A,,Scattered Clouds,330,2013-04-27 21:15:00
4:35 PM,69.8,53.6,56,30.05,10.0,North,12.7,16.1,N/A,,Scattered Clouds,350,2013-04-27 21:35:00
5:15 PM,69.8,53.6,56,30.05,10.0,NW,10.4,-,N/A,,Scattered Clouds,310,2013-04-27 22:15:00
5:35 PM,69.8,53.6,56,30.05,10.0,North,6.9,-,N/A,,Clear,350,2013-04-27 22:35:00
5:55 PM,69.8,53.6,56,30.05,10.0,NNE,9.2,-,N/A,,Clear,30,2013-04-27 22:55:00
6:15 PM,69.8,53.6,56,30.05,10.0,NNW,8.1,-,N/A,,Clear,340,2013-04-27 23:15:00
6:35 PM,69.8,53.6,56,30.05,10.0,NNE,8.1,-,N/A,,Clear,20,2013-04-27 23:35:00
6:55 PM,68.0,53.6,60,30.04,10.0,NNE,6.9,-,N/A,,Clear,20,2013-04-27 23:55:00
7:15 PM,68.0,53.6,60,30.04,10.0,NE,8.1,-,N/A,,Clear,40,2013-04-28 00:15:00
7:35 PM,66.2,53.6,64,30.04,7.0,NE,4.6,-,N/A,,Clear,40,2013-04-28 00:35:00
7:55 PM,62.6,53.6,72,30.04,10.0,NE,8.1,-,N/A,,Clear,40,2013-04-28 00:55:00
8:15 PM,60.8,53.6,77,30.03,10.0,NE,9.2,-,N/A,,Clear,40,2013-04-28 01:15:00
8:35 PM,59.0,53.6,82,30.03,10.0,NE,8.1,-,N/A,,Clear,40,2013-04-28 01:35:00
8:55 PM,59.0,53.6,82,30.03,10.0,NE,8.1,-,N/A,,Clear,40,2013-04-28 01:55:00
9:15 PM,57.2,51.8,82,30.03,10.0,NE,5.8,-,N/A,,Clear,40,2013-04-28 02:15:00
9:35 PM,55.4,51.8,88,30.03,10.0,NE,5.8,-,N/A,,Clear,40,2013-04-28 02:35:00
9:55 PM,55.4,51.8,88,30.04,10.0,NE,4.6,-,N/A,,Clear,50,2013-04-28 02:55:00
10:15 PM,53.6,51.8,94,30.05,10.0,Calm,Calm,-,N/A,,Clear,0,2013-04-28 03:15:00
10:35 PM,53.6,51.8,94,30.05,10.0,ENE,3.5,-,N/A,,Clear,70,2013-04-28 03:35:00
10:55 PM,53.6,51.8,94,30.06,10.0,East,4.6,-,N/A,,Clear,80,2013-04-28 03:55:00
11:15 PM,51.8,50.0,94,30.06,10.0,ENE,4.6,-,N/A,,Clear,60,2013-04-28 04:15:00
11:35 PM,51.8,50.0,94,30.06,10.0,ENE,4.6,-,N/A,,Clear,70,2013-04-28 04:35:00
11:55 PM,51.8,50.0,94,30.04,10.0,ENE,4.6,-,N/A,,Clear,70,2013-04-28 04:55:00